User: anonymous   Login
Location: Ab? ar R?sh Ba?r?
(24.1861°N, 32.8847°E)
Time: 05:34:38
(UTC+00:00)
Language:

Okean 1-7 Rocket - Orbit

View from above orbital plane
View from above orbital plane
View from above satellite
View from above satellite

Ground track
Ground track

The orbit data is extracted from the following two-line orbital elements,

1 23318U 94066B   22021.55854632  .00000143  00000-0  16119-4 0  9997
2 23318  82.5396  51.0602 0024734 136.5874 223.7292 14.78947966470582
Epoch (UTC): 21 January 2022 13:24:18
Eccentricity: 0.0024734
inclination: 82.5396°
perigee height: 615 km
apogee height: 650 km
right ascension of ascending node: 51.0602°
argument of perigee: 136.5874°
revolutions per day: 14.78947966
mean anomaly at epoch: 223.7292°
orbit number at epoch: 47058

The dashed part of the orbit path shows where the satellite is in the earth's shadow,  

DLR